Hourly Weather Roundup
Issued by NWS Central Illinois

Home | Current Version | Previous Version | Text Only | Print | Product List | Glossary On
Versions: 1 2 3 4 5 6 7 8 9 10 11 12 13 14 15 16 17 18 19 20 21 22 23 24 25 26 27 28 29 30 31 32 33 34 35 36 37 38 39 40 41 42 43 44 45 46 47 48 49 50
000
NZUS43 KILX 242110
HWRILX

Area Weather Roundup
National Weather Service Lincoln IL
400 PM CDT MON APR 24 2017

NOTE:  "FAIR" indicates few or no clouds below 12,000 feet, with
       no sigificant weather and/or obstructions to visibility.


CITY           SKY/WX    TMP DP  RH WIND       PRES   REMARKS
Bloomington    SUNNY     76  29  17 SE13G22   29.81F
Champaign      SUNNY     79  22  12 E16G25    29.80F
Danville       SUNNY     76  28  16 E13       29.79F
Decatur        SUNNY     77  32  19 E8        29.79F
Effingham      SUNNY     76  35  22 CALM      29.81F
Flora          SUNNY     78  30  17 NE7       29.80F
Galesburg      CLOUDY    75  31  19 SE13      29.77F
Jacksonville   SUNNY     76  27  16 S12       29.77F
Lacon          SUNNY     76  34  21 SE12      29.78F
Lawrenceville  SUNNY     77  33  20 E8G18     29.78F
Litchfield     SUNNY     75  33  21 E9        29.78F
$$


CITY           SKY/WX    TMP DP  RH WIND       PRES   REMARKS
Lincoln        SUNNY     79  30  17 SE13G21   29.78F
Macomb         MOSUNNY   78  24  13 SE13      29.79F
Mattoon        SUNNY     76  32  20 E8        29.78F
Mt Carmel AP   SUNNY     77  32  19 NE8       29.78F
Olney-Noble AP SUNNY     76  31  19 E8        29.80F
Paris AP       SUNNY     78  31  18 NE9       29.81F
Peoria         SUNNY     77  25  14 SE12      29.78F
Pontiac        SUNNY     78  23  13 E14       29.82F
Rantoul        SUNNY     79  28  15 E15       29.80F
Robinson       SUNNY     76  32  20 E7        29.79F
Springfield    SUNNY     79  25  13 SE14      29.78F
Taylorville    SUNNY     77  30  18 SE10G16   29.78F
$$

...REGIONAL REPORTS...


CITY           SKY/WX    TMP DP  RH WIND       PRES   REMARKS
Chicago O`Hare PTSUNNY   72  30  21 E13       29.84F
Kankakee       SUNNY     77  27  16 SE12G18   29.82F
Moline         MOSUNNY   77  27  15 S10G23    29.75F
Mount Sterling SUNNY     76  30  18 S13G18    29.76F
Mount Vernon   SUNNY     75  36  24 NE9       29.79F
Pittsfield     SUNNY     77  31  18 S8G18     29.78F
Quincy         SUNNY     76  24  14 S16G22    29.75F
Rockford       CLOUDY    74  28  18 S12       29.82F
$$


CITY           SKY/WX    TMP DP  RH WIND       PRES   REMARKS
Burlington     SUNNY     76  34  21 S15       29.75F
Cedar Rapids   SUNNY     75  28  17 SE20G29   29.72F
Des Moines     CLOUDY    75  30  19 S24G37    29.62F
Kirksville     SUNNY     76  28  17 S21G36    29.71F
Ottumwa        SUNNY     76  27  16 SE23G31   29.68F
St Louis       PTSUNNY   77  30  17 SE14      29.78F
$$


CITY           SKY/WX    TMP DP  RH WIND       PRES   REMARKS
Terre Haute    SUNNY     76  36  23 E10       29.80F
Evansville     SUNNY     77  44  30 NE6       29.79F
Indianapolis   PTSUNNY   75  40  28 E16       29.81F
Lafayette      NOT AVBL
Madison        PTSUNNY   70  29  21 S15       29.80F
Milwaukee      CLOUDY    64  33  31 SE13      29.88F
$$





USA.gov is the U.S. government's official web portal to all federal, state and local government web resources and services.